This is the latest recevied weather packets stored in our database for station/object K2NV. If no packets are shown the sender has not sent any weather packets the latest 1 day(s).
| Time | Temp. | Humidity | Pressure | Rain* | Wind** | Luminosity | Snow |
|---|---|---|---|---|---|---|---|
| 1778021056 | 10° C | 90% | 1006.9 hPa | 2.54 mm | 0 m/s | - | - |
| 1778020755 | 10° C | 90% | 1006.8 hPa | 2.79 mm | 0 m/s | - | - |
| 1778020457 | 10° C | 90% | 1007 hPa | 2.79 mm | 0.45 m/s, 324° | - | - |
| 1778020156 | 10° C | 90% | 1007 hPa | 2.79 mm | 0.45 m/s, 324° | - | - |
| 1778019856 | 10° C | 89% | 1007.2 hPa | 3.05 mm | 0.89 m/s, 320° | - | - |
| 1778019556 | 10° C | 89% | 1007.2 hPa | 3.05 mm | 0.89 m/s, 330° | - | - |
| 1778019257 | 10° C | 89% | 1007.2 hPa | 3.05 mm | 0.89 m/s, 331° | - | - |
| 1778018956 | 10° C | 89% | 1007.1 hPa | 3.05 mm | 1.34 m/s, 334° | - | - |
| 1778018657 | 10° C | 89% | 1007 hPa | 2.79 mm | 0.89 m/s, 333° | - | - |
| 1778018355 | 10° C | 88% | 1007 hPa | 2.79 mm | 0.89 m/s, 321° | - | - |
| 1778018056 | 10° C | 88% | 1006.8 hPa | 3.3 mm | 0.45 m/s, 320° | - | - |
| 1778017758 | 10° C | 88% | 1006.7 hPa | 3.56 mm | 0.45 m/s, 307° | - | - |
| 1778017456 | 10° C | 88% | 1006.8 hPa | 3.56 mm | 0.89 m/s, 340° | - | - |
| 1778017156 | 10° C | 87% | 1006.9 hPa | 3.56 mm | 0.89 m/s, 7° | - | - |
| 1778016856 | 10.56° C | 87% | 1007.1 hPa | 3.56 mm | 2.68 m/s, 323° | - | - |
| 1778016556 | 10.56° C | 87% | 1006.7 hPa | 3.56 mm | 0.89 m/s, 346° | - | - |
| 1778016257 | 10.56° C | 87% | 1006.6 hPa | 3.3 mm | 0.89 m/s, 318° | - | - |
| 1778015957 | 10.56° C | 87% | 1006.3 hPa | 3.05 mm | 0.45 m/s, 323° | - | - |
| 1778015657 | 10.56° C | 86% | 1006.2 hPa | 3.05 mm | 0.89 m/s, 341° | - | - |
| 1778015357 | 11.11° C | 85% | 1006.1 hPa | 2.79 mm | 3.58 m/s, 329° | - | - |
| 1778015062 | 11.67° C | 86% | 1006.2 hPa | 2.54 mm | 2.68 m/s, 342° | - | - |
| 1778014756 | 11.67° C | 87% | 1006.3 hPa | 2.29 mm | 1.34 m/s, 304° | - | - |
| 1778014456 | 11.67° C | 86% | 1006 hPa | 1.52 mm | 2.24 m/s, 297° | - | - |
| 1778014156 | 11.67° C | 85% | 1005.6 hPa | 1.02 mm | 2.68 m/s, 244° | - | - |
| 1778013857 | 12.22° C | 84% | 1005.4 hPa | 0.76 mm | 2.68 m/s, 230° | - | - |
* Rain latest hour (hover to see other rain measurements)
** Current wind speed in m/s (hover to see current wind gust speed)